Location: Gajan
(43.0218°N, 1.1244°E)
Time: 03:05:50
(UTC+00:00)

Cosmos 405 Rocket - Pass Details

Date: 22 April 2021
Orbit: 489 x 553 km, 81.3° (Epoch: 15 May)

Event Time Altitude Azimuth Distance (km) Brightness Sun altitude
Rises 20:12:09 0° 345° (NNW) 2,714 7.1 -14.9°
Reaches altitude 10° 20:14:22 10° 342° (NNW) 1,808 6.2 -15.2°
Maximum altitude 20:18:16 56° 264° (W) 637 3.4 -15.8°
Enters shadow 20:21:43 12° 187° (S) 1,620 4.9 -16.4°
